Regional Weather Roundup
Issued by NWS Jackson, KY

Home | Current Version | Previous Version | Text Only | Print | Product List | Glossary Off
Versions: 1 2 3 4 5 6 7 8 9 10 11 12 13 14 15 16 17 18 19 20 21 22 23 24 25 26 27 28 29 30 31 32 33 34 35 36 37 38 39 40 41 42 43 44 45 46 47 48 49 50

000
ASUS43 KJKL 291219
RWRJKL

EAST KENTUCKY HOURLY WEATHER ROUNDUP
NATIONAL WEATHER SERVICE JACKSON KY
800 AM EDT FRI AUG 29 2014

NOTE: "FAIR" INDICATES FEW OR NO CLOUDS BELOW 12,000 FEET WITH
NO SIGNIFICANT WEATHER AND/OR OBSTRUCTIONS TO VISIBILITY.

* THESE REPORTS ARE NOT UNDER NWS QUALITY CONTROL AND MAY NOT
  REPORT WEATHER SUCH AS PRECIPITATION AND FOG.

KYZ079-080-083-085-087-088-110-112-115-119-120-291300
...EASTERN KENTUCKY...

CITY           SKY/WX    TMP DP  RH WIND       PRES   REMARKS
JACKSON        SUNNY     67  62  84 CALM      30.11R
6HR MIN TEMP:  66; 6HR MAX TEMP:  70;

LONDON         SUNNY     70  66  87 CALM      30.10R FOG
6HR MIN TEMP:  68; 6HR MAX TEMP:  73;

SOMERSET*      CLEAR     70  68  94 CALM      30.09R FOG
MONTICELLO*    CLEAR     70  69  96 CALM      30.09R FOG
6HR MIN TEMP:  68; 6HR MAX TEMP:  72;

WILLIAMSBURG*  CLOUDY    68  68 100 CALM      30.10R
MIDDLESBORO*   FOG       67  67 100 CALM      30.12R VSB 1
6HR MIN TEMP:  67; 6HR MAX TEMP:  69;

HARLAN APT*    CLOUDY    66  66 100 MISG      30.13R VSB 1/4
HAZARD APT*    SUNNY     64  64 100 CALM      30.11  FOG
BLACK MTN*       N/A     68  64  88 S3          N/A
PIKEVILLE APT* FOG       64  64 100 CALM      30.12R VSB 0
BIG SANDY*     MOSUNNY   64  64  99 NE3       30.12R
6HR MIN TEMP:  62; 6HR MAX TEMP:  67;

MOREHEAD APT*  MOSUNNY   68  61  77 CALM      30.12S
ASHLAND*       SUNNY     64  57  77 CALM      30.10R
$$

KYZ035-036-041-042-044-050-067-078-099-291300
...CENTRAL KENTUCKY...

CITY           SKY/WX    TMP DP  RH WIND       PRES   REMARKS
MT STERLING*   SUNNY     66  63  88 SE5       30.11R
FLEMING/MASON* SUNNY     64  61  88 E5        30.12S
DANVILLE*      CLEAR     68  66  94 CALM      30.09R
RICHMOND*      CLEAR     66  63  88 CALM      30.08R
LEXINGTON      CLEAR     72  62  71 E6        30.09R
6HR MIN TEMP:  70; 6HR MAX TEMP:  75;

FRANKFORT      CLEAR     68  64  87 E5        30.07R
6HR MIN TEMP:  67; 6HR MAX TEMP:  72;

$$

KYZ091>093-OHZ055-061-077-WVZ005-015-034-035-042-291300
...SOUTHERN OHIO/WEST VIRGINIA...

CITY           SKY/WX    TMP DP  RH WIND       PRES   REMARKS
COVINGTON      PTCLDY    68  59  73 E7        30.09R
COLUMBUS       MOSUNNY   63  53  70 E7        30.14R
DAYTON         MOSUNNY   65  57  75 SE7       30.12S
WILMINGTON     MOSUNNY   61  56  83 E7        30.12R
HUNTINGTON     SUNNY     64  61  90 NE5       30.11R
CHARLESTON     PTSUNNY   62  62 100 NE6       30.12R FOG
PINEVILLE*     MOSUNNY   63  63 100 MISG      30.20S
BECKLEY        SUNNY     65  58  78 SE6       30.19R
BLUEFIELD      SUNNY     66  57  72 SE9       30.22R
$$

VAZ002-007-008-TNZ017-027-036-066-071-291300
...SOUTHWEST VIRGINIA/EAST TENNESSEE...

CITY           SKY/WX    TMP DP  RH WIND       PRES   REMARKS
WISE*          SUNNY     68  66  94 CALM      30.19R
JONESVILLE*      N/A     64  64 100 CALM      30.14R FOG
ABINGDON*      SUNNY     69  66  91 E3        30.16R
BRISTOL        MOSUNNY   68  64  87 CALM      30.13R
KNOXVILLE      MOSUNNY   72  70  93 CALM      30.08R FOG
OAK RIDGE      CLEAR     73  70  90 CALM      30.10R FOG
CROSSVILLE     CLEAR     71  65  81 CALM      30.13R HAZE
NASHVILLE      PTCLDY    72  69  90 S3        30.04R
$$

...KEY TO REMARKS...
VSB - VISIBILITY IN MILES
WCI - WIND CHILL INDEX
HX  - HEAT INDEX

$$


USA.gov is the U.S. government's official web portal to all federal, state and local government web resources and services.